[[{"header":{"parameterUnit":"m.s-1","parameterCategory":1,"la1":30.2991,"la2":30.254,"lo1":-89.0895,"lo2":-89.0444,"dy":0.0017,"dx":0.0017,"nx":28,"ny":28,"refTime":"2025-01-29T09:00:00:Z","depth":0,"parameterNumber":2,"parameterNumberName":"U-component_of_WINDS"},"data":[0,0,0,0,0,0,0,0,0,0,0,0,0,0,0,0,0,0,0,0,0,0,0,0,0,0,0,0,0,0,0,0,0,0,0,0,0,0,0,0,0,0,0,0,0,0,0,0,0,0,0,0,0,0,0,0,0,0,1.3503,1.3503,0,1.357,1.357,1.3571,1.3564,1.3562,1.3561,1.356,1.3627,1.363,1.3632,0,0,0,0,0,0,0,0,0,0,0,0,0,1.3366,1.3368,1.3503,1.3503,1.3504,1.357,1.357,1.3571,1.3564,1.3562,1.3561,1.356,1.3626,1.3629,1.3633,0,0,0,0,0,0,0,0,0,0,0,0,0,1.3428,1.3369,1.3502,1.3508,1.351,1.3569,1.3571,1.3572,1.3564,1.3562,1.3561,1.3559,1.3625,1.3629,1.3633,1.3691,0,0,1.3646,1.3648,0,0,0,0,0,0,0,0,1.3425,1.3433,1.3507,1.3508,1.351,1.3557,1.3547,1.3611,1.3564,1.3543,1.356,1.3559,1.3605,1.361,1.3626,1.3694,1.3697,1.3646,1.3649,1.365,1.3652,0,0,0,0,0,0,0,1.342,1.343,1.3529,1.3508,1.3509,1.3507,1.3514,1.3559,1.3582,1.3545,1.3545,1.3553,1.3605,1.3622,1.3628,1.3698,1.3646,1.365,1.3652,1.3654,1.3815,1.3817,0,0,0,0,0,0,1.3415,1.3427,1.3527,1.3531,1.3462,1.3511,1.3519,1.3543,1.3582,1.3586,1.3554,1.3552,1.3616,1.3623,1.363,1.37,1.365,1.3654,1.3657,1.3813,1.3816,1.3818,0,0,0,0,0,0,1.3412,1.3424,1.3524,1.3479,1.3491,1.3515,1.3542,1.3545,1.3563,1.3588,1.3592,1.3568,1.3615,1.3624,1.3676,1.3702,1.3656,1.366,1.3811,1.3814,1.3817,1.384,0,0,0,0,0,0,1.3408,1.3423,1.3445,1.3479,1.3494,1.3569,1.3544,1.3548,1.357,1.3568,1.3602,1.3606,1.3615,1.367,1.368,1.3707,1.3663,1.3809,1.3813,1.3816,1.3837,1.3843,1.3848,0,0,0,0,0,1.3403,1.3449,1.3447,1.3459,1.3523,1.3571,1.3579,1.3588,1.3572,1.3595,1.3611,1.3605,1.3698,1.3675,1.3686,1.3715,1.3807,1.3812,1.3815,1.3834,1.3842,1.3848,0,0,0,0,0,0,1.3416,1.3453,1.3451,1.3509,1.3537,1.3569,1.3598,1.3596,1.3628,1.3625,1.3635,1.3642,1.3694,1.371,1.3684,1.3773,1.375,1.3757,1.3761,1.3768,1.3774,1.3769,1.3667,0,0,0,0,0,1.3426,1.3463,1.3493,1.3541,1.3556,1.3575,1.3596,1.3601,1.3629,1.3641,1.3661,1.3689,1.3724,1.3747,1.3781,1.3839,1.3846,1.3865,1.3871,1.3875,1.388,1.3912,1.3921,1.3831,1.3831,1.3831,0,0,1.3447,1.3471,1.3494,1.3545,1.3567,1.3604,1.3584,1.3624,1.3652,1.3647,1.3697,1.3713,1.3744,1.3799,1.3824,1.3814,1.3907,1.388,1.3884,1.3887,1.3917,1.3926,1.3933,1.3834,1.3833,1.3833,0,0,1.3503,1.3525,1.3568,1.3591,1.3625,1.3637,1.3648,1.368,1.3691,1.3742,1.3738,1.3771,1.3832,1.3854,1.3873,1.3938,1.3934,1.3949,1.3979,1.401,1.4017,1.4023,1.4046,1.4054,1.3954,1.3955,1.3955,0,1.3523,1.358,1.359,1.3631,1.3653,1.3651,1.3694,1.3716,1.3758,1.3774,1.3761,1.3838,1.3858,1.3919,1.3935,1.3951,1.3962,1.3945,1.4015,1.4022,1.4028,1.4049,1.4058,1.3956,1.3956,1.3956,1.3956,0,1.3604,1.3643,1.3673,1.3716,1.3741,1.3783,1.3799,1.3824,1.3827,1.384,1.3891,1.3916,1.3955,1.397,1.3973,1.4031,1.4023,1.4013,1.399,1.4038,1.4058,1.4067,1.3958,1.3958,1.3957,1.3957,0,0,1.3669,1.3717,1.3728,1.3747,1.3785,1.3815,1.3857,1.3895,1.3916,1.3946,1.3981,1.4032,1.4023,1.4045,1.405,1.4078,1.4127,1.4064,1.4065,1.4074,1.4192,1.4199,1.4208,1.4125,1.4126,1.4128,1.4189,0,1.3728,1.3803,1.3813,1.3878,1.3914,1.3913,1.3949,1.3976,1.399,1.4022,1.4037,1.4073,1.4059,1.4072,1.4099,1.4115,1.4151,1.4111,1.4156,1.4157,1.4148,1.4219,1.4227,1.4284,1.4197,1.4199,1.42,0,1.3807,1.384,1.3909,1.3942,1.3958,1.399,1.4026,1.4057,1.4087,1.4095,1.412,1.4122,1.4165,1.4141,1.4199,1.4172,1.4191,1.4202,1.4204,1.4208,1.4181,1.4224,1.4302,1.431,1.4213,1.4211,1.4211,0,1.3848,1.3909,1.3958,1.3975,1.4014,1.4037,1.4054,1.4083,1.4106,1.4138,1.4152,1.4188,1.4208,1.4235,1.4247,1.4229,1.4304,1.4281,1.4311,1.4311,1.4326,1.4325,1.4407,1.434,1.434,1.434,1.4339,0,1.3912,1.3954,1.3977,1.4007,1.4054,1.4066,1.4112,1.4128,1.4154,1.4187,1.4188,1.4218,1.4232,1.4265,1.4274,1.432,1.4329,1.4336,1.4338,1.4336,1.4335,1.4348,1.4344,1.4342,1.4341,1.4341,1.4341,0,1.3965,1.3982,1.4035,1.4069,1.4078,1.4111,1.4139,1.4168,1.4182,1.4224,1.4234,1.4256,1.4294,1.4309,1.4355,1.4362,1.4415,1.4414,1.4405,1.4405,1.4434,1.4431,1.4527,1.454,1.4465,1.4465,1.4466,0,1.4005,1.4037,1.4074,1.4097,1.4115,1.4152,1.4175,1.4188,1.4212,1.4249,1.4273,1.4312,1.4343,1.4405,1.4424,1.446,1.4459,1.449,1.4464,1.4461,1.4459,1.4456,1.4459,1.4495,1.4496,1.4496,1.4497,0,1.4073,1.408,1.4114,1.4152,1.418,1.421,1.4239,1.4257,1.4274,1.4301,1.4341,1.4365,1.4414,1.4452,1.4488,1.4505,1.4504,1.4505,1.4514,1.4511,1.4504,1.4508,1.4417,1.4502,1.4502,1.4501,1.4501,1.4501,1.412,1.4149,1.418,1.4218,1.4241,1.4268,1.4297,1.4315,1.4349,1.439,1.4395,1.4438,1.4467,1.4516,1.4535,1.4568,1.4559,1.4572,1.4575,1.4578,1.458,1.45,1.4575,1.4575,1.4574,1.4574,1.4574,0,1.4188,1.4208,1.4243,1.4284,1.4314,1.4311,1.4343,1.4368,1.4406,1.4433,1.4465,1.451,1.4547,1.457,1.4607,1.4629,1.4629,1.4638,1.4636,1.464,1.4586,1.4574,1.4638,1.4638,1.4638,1.4638,1.4638,1.4638,1.4227,1.4276,1.4286,1.4346,1.4366,1.4408,1.4427,1.4451,1.4474,1.4525,1.4556,1.4571,1.4596,1.4636,1.4669,1.4675,1.4688,1.4698,1.4702,1.4651,1.4644,1.4638,1.4627,1.4701,1.4701,1.4754,1.4755,1.4755]},{"header":{"parameterUnit":"m.s-1","parameterCategory":1,"la1":30.2991,"la2":30.254,"lo1":-89.0895,"lo2":-89.0444,"dy":0.0017,"dx":0.0017,"nx":28,"ny":28,"refTime":"2025-01-29T09:00:00:Z","depth":0,"parameterNumber":3,"parameterNumberName":"V-component_of_WINDS"},"data":[0,0,0,0,0,0,0,0,0,0,0,0,0,0,0,0,0,0,0,0,0,0,0,0,0,0,0,0,0,0,0,0,0,0,0,0,0,0,0,0,0,0,0,0,0,0,0,0,0,0,0,0,0,0,0,0,0,0,0.2826,0.2827,0,0.284,0.284,0.284,0.2815,0.2814,0.2813,0.2812,0.2827,0.2828,0.2829,0,0,0,0,0,0,0,0,0,0,0,0,0,0.2778,0.2779,0.2826,0.2827,0.2827,0.284,0.284,0.284,0.2815,0.2814,0.2813,0.2812,0.2826,0.2828,0.2829,0,0,0,0,0,0,0,0,0,0,0,0,0,0.2796,0.278,0.2826,0.2816,0.2815,0.284,0.284,0.284,0.2815,0.2814,0.2812,0.2811,0.2826,0.2828,0.2829,0.2866,0,0,0.2835,0.2836,0,0,0,0,0,0,0,0,0.2795,0.2798,0.2817,0.2816,0.2815,0.2824,0.2829,0.2849,0.2815,0.2815,0.2812,0.2811,0.2827,0.2829,0.2834,0.2867,0.2867,0.2835,0.2836,0.2837,0.2837,0,0,0,0,0,0,0,0.2794,0.2798,0.2832,0.2817,0.2816,0.281,0.2811,0.2832,0.2828,0.2815,0.2813,0.2815,0.2826,0.2832,0.2834,0.2868,0.2835,0.2837,0.2838,0.2838,0.2931,0.2932,0,0,0,0,0,0,0.2794,0.2797,0.2831,0.2832,0.2802,0.2812,0.2813,0.2823,0.2828,0.2827,0.2816,0.2814,0.283,0.2832,0.2835,0.2878,0.2837,0.2838,0.284,0.293,0.2931,0.2933,0,0,0,0,0,0,0.2793,0.2798,0.2831,0.2814,0.2818,0.2814,0.2825,0.2824,0.283,0.2829,0.2828,0.2823,0.2829,0.2832,0.2858,0.2878,0.2839,0.2841,0.2928,0.293,0.2932,0.2965,0,0,0,0,0,0,0.2792,0.2797,0.2811,0.2814,0.2819,0.2855,0.2826,0.2825,0.2833,0.283,0.2835,0.2834,0.2828,0.2856,0.286,0.288,0.2842,0.2926,0.2929,0.2931,0.2963,0.2968,0.2973,0,0,0,0,0,0.279,0.2821,0.2812,0.2817,0.2836,0.2856,0.2858,0.285,0.2834,0.2849,0.2848,0.2834,0.2875,0.2859,0.2863,0.2884,0.2925,0.2928,0.2931,0.296,0.2967,0.2973,0,0,0,0,0,0,0.2821,0.2821,0.2812,0.2844,0.285,0.2851,0.2869,0.2858,0.2869,0.2866,0.2856,0.2857,0.2885,0.2887,0.2869,0.292,0.2897,0.2902,0.2918,0.2925,0.293,0.2929,0.2844,0,0,0,0,0,0.2831,0.2847,0.2846,0.2874,0.2878,0.2873,0.2881,0.2874,0.288,0.2883,0.2884,0.2891,0.2905,0.2915,0.2928,0.2962,0.2963,0.2979,0.2984,0.2988,0.2993,0.3011,0.3018,0.2943,0.2943,0.2943,0,0,0.2852,0.2854,0.2865,0.288,0.2884,0.2901,0.2875,0.2894,0.2906,0.2886,0.2911,0.2912,0.2918,0.2949,0.2962,0.2951,0.3013,0.2992,0.2996,0.2998,0.3015,0.3022,0.3028,0.2945,0.2945,0.2944,0,0,0.29,0.2903,0.2927,0.2931,0.2938,0.2934,0.294,0.2943,0.2943,0.2967,0.2952,0.2966,0.2991,0.2997,0.3003,0.3051,0.304,0.3056,0.3085,0.3103,0.3109,0.3114,0.3132,0.3138,0.306,0.306,0.306,0,0.2927,0.2951,0.2941,0.2961,0.2968,0.2949,0.2973,0.2978,0.2988,0.2994,0.2981,0.3011,0.3014,0.3046,0.3058,0.3063,0.3069,0.3056,0.3108,0.3114,0.3118,0.3135,0.3142,0.3062,0.3061,0.3061,0.3061,0,0.2983,0.3,0.3019,0.3029,0.3038,0.306,0.3053,0.3063,0.3055,0.3053,0.3078,0.3081,0.3094,0.3101,0.3094,0.3131,0.3124,0.311,0.3088,0.3128,0.3143,0.315,0.3065,0.3064,0.3063,0.3063,0,0,0.3052,0.3055,0.3062,0.3067,0.3071,0.3085,0.3105,0.3118,0.3127,0.3134,0.3152,0.3173,0.3159,0.3166,0.3159,0.3174,0.3213,0.3158,0.3158,0.3169,0.3256,0.3267,0.3275,0.3205,0.3206,0.3207,0.3255,0,0.31,0.3136,0.3127,0.3163,0.3178,0.316,0.3178,0.3183,0.3181,0.3194,0.3192,0.3207,0.3188,0.3192,0.3207,0.3206,0.3231,0.3202,0.3222,0.3223,0.3222,0.3283,0.3295,0.3341,0.3261,0.3262,0.3263,0,0.3162,0.3171,0.3208,0.321,0.3216,0.3233,0.3243,0.3256,0.3261,0.3258,0.3265,0.3255,0.3275,0.3252,0.328,0.326,0.3268,0.3268,0.327,0.3272,0.3246,0.3288,0.3355,0.3362,0.3273,0.3272,0.3271,0,0.3209,0.323,0.3255,0.3259,0.3262,0.3274,0.3276,0.3279,0.3287,0.3297,0.3302,0.3313,0.332,0.3329,0.3321,0.3305,0.3351,0.3327,0.335,0.335,0.3361,0.3361,0.3431,0.3365,0.3364,0.3364,0.3364,0,0.3264,0.3288,0.3277,0.3292,0.3318,0.3307,0.3333,0.3332,0.3336,0.3351,0.3335,0.335,0.3339,0.3353,0.3347,0.3371,0.3374,0.3373,0.3371,0.3375,0.3375,0.338,0.3377,0.3366,0.3366,0.3365,0.3365,0,0.3322,0.3315,0.3342,0.3341,0.3342,0.3361,0.3361,0.3375,0.3372,0.3391,0.3395,0.339,0.3405,0.3398,0.3414,0.341,0.3442,0.3435,0.344,0.3439,0.3463,0.3461,0.354,0.355,0.3476,0.3476,0.3477,0,0.3358,0.3376,0.3378,0.3386,0.3389,0.3403,0.3411,0.3401,0.341,0.3416,0.343,0.3443,0.3454,0.3479,0.3476,0.3488,0.3483,0.351,0.3485,0.3488,0.3484,0.3484,0.3485,0.3515,0.3516,0.3517,0.3517,0,0.3424,0.3419,0.3431,0.3442,0.3451,0.3459,0.3466,0.3474,0.3463,0.3474,0.3489,0.3497,0.3513,0.3527,0.3537,0.3539,0.3527,0.3525,0.3531,0.3535,0.3538,0.3537,0.3455,0.3523,0.3523,0.3522,0.3522,0.3522,0.3472,0.3487,0.349,0.3504,0.3507,0.3514,0.3527,0.3525,0.3537,0.3549,0.3542,0.356,0.3564,0.3576,0.3579,0.3593,0.3583,0.3591,0.3594,0.3596,0.36,0.3534,0.3595,0.3595,0.3595,0.3594,0.3594,0,0.3537,0.3538,0.3551,0.356,0.3571,0.3557,0.3564,0.3573,0.3589,0.3594,0.3604,0.3621,0.3634,0.3632,0.3644,0.3656,0.365,0.3659,0.3659,0.366,0.3608,0.3602,0.3663,0.3663,0.3663,0.3663,0.3663,0.3663,0.3573,0.3597,0.3593,0.3619,0.3619,0.3636,0.3641,0.3647,0.365,0.367,0.3681,0.3679,0.3681,0.3693,0.3705,0.3704,0.3709,0.372,0.3718,0.367,0.3663,0.3657,0.3651,0.3721,0.3721,0.3768,0.3768,0.3768]}]]